Regional Weather Roundup
Issued by NWS

Home | Current Version | Previous Version | Graphics & Text | Print | Product List | Glossary On
Versions: 1 2 3 4 5 6 7 8 9 10 11 12 13 14 15 16 17 18 19 20 21 22 23 24 25 26 27 28 29 30 31 32 33 34 35 36 37 38 39 40 41 42 43 44 45 46 47 48 49 50
000
ASUS45 KBOU 251507
RWRCO

WEATHER ROUNDUP FOR COLORADO
NATIONAL WEATHER SERVICE DENVER/BOULDER CO
900 AM MDT MON MAY 25 2015

NOTE: "FAIR" INDICATES FEW OR NO CLOUDS BELOW 12000 FEET WITH NO
SIGNIFICANT WEATHER AND/OR OBSTRUCTIONS TO VISIBILITY.

COZ001>005-013-030-031-251600-
...NORTHWEST COLORADO...

CITY           SKY/WX    TMP DP  RH WIND       PRES   REMARKS
CRAIG          CLOUDY    48  40  73 W5        30.01S
HAYDEN         PTSUNNY   43  36  75 W3        30.02S
MEEKER         CLOUDY    46  40  79 W3        30.03R
MOUNT WERNER   NOT AVBL
STEAMBOAT SPGS CLOUDY    41  38  88 SE6       30.02S
WALDEN         CLOUDY    39  32  75 S6        30.02S
$$

COZ006>008-011-251600-
...WEST CENTRAL VALLEYS...

CITY           SKY/WX    TMP DP  RH WIND       PRES   REMARKS
GRAND JUNCTION CLOUDY    51  45  79 SE9       29.99R
MONTROSE       PTSUNNY   50  43  77 CALM      30.04R
EAGLE          PTSUNNY   45  37  76 CALM      30.05R
RIFLE          CLOUDY    47  43  86 CALM      30.03R
DELTA          CLOUDY    51  45  79 MISG      30.03R
NUCLA          MOSUNNY   52  45  76 CALM      30.05R
$$

COZ017>023-064>068-251600-
...SOUTHWEST COLORADO...

CITY           SKY/WX    TMP DP  RH WIND       PRES   REMARKS
DURANGO        CLOUDY    46  42  86 CALM      30.05R
CORTEZ         CLOUDY    52  44  74 E6        30.02R
PAGOSA SPRINGS CLOUDY    43  42  96 CALM      30.07S
TELLURIDE      CLOUDY    40  37  91 CALM      30.11R
WOLF CREEK PAS NOT AVBL
$$

COZ009-010-012-014-032>034-037-058>063-251600-
...CENTRAL COLORADO...

CITY           SKY/WX    TMP DP  RH WIND       PRES   REMARKS
ASPEN          LGT RAIN  41  35  79 CALM      30.04R
BUENA VISTA    SUNNY     47  31  53 NW6       30.01S
COPPER MTN     CLOUDY    30  27  86 W18       30.12R WCI  18
BERTHOUD PASS  CLOUDY    21  14  73 NW23G29   30.11R WCI   5
COTTONWOOD PAS PTSUNNY   45  34  65 E5        30.06R
GUNNISON       PTSUNNY   39  34  81 CALM      30.08S
KREMMLING      CLOUDY    45  34  65 SW7       30.04S
LEADVILLE      CLOUDY    36  28  73 VRB5      30.06R
SALIDA         PTSUNNY   50  37  62 N6        30.07R
SUNLIGHT       LGT SNOW N/A N/A N/A CALM        N/A  VSB 3/4
WILKERSON PASS MOSUNNY   32  28  86 MISG      30.12R
$$

COZ069>075-251600-
...SAN LUIS VALLEY/SANGRE DE CRISTO MOUNTAINS...

CITY           SKY/WX    TMP DP  RH WIND       PRES   REMARKS
ALAMOSA        MOSUNNY   48  35  60 NE6       30.02S
LA VETA PASS   PTSUNNY  N/A N/A N/A MISG      30.08R
SAGUACHE       PTSUNNY   45  37  76 NW9       30.04S
$$

COZ035-036-038>040-251600-
...NORTHERN COLORADO FRONT RANGE...

CITY           SKY/WX    TMP DP  RH WIND       PRES   REMARKS
DENVER INTL AP PTSUNNY   52  42  69 CALM      29.92R
DMNS CITY PARK   N/A     57  40  53 E5G41     29.91S
AURORA         NOT AVBL
FRONT RANGE AP NOT AVBL
ERIE MUNI ARPT MOSUNNY   51  44  78 CALM      29.91S
BOULDER MUN AP MOSUNNY   52  41  66 CALM      29.91S
CENTENNIAL     PTSUNNY   53  40  61 E5        29.92F
BROOMFIELD     NOT AVBL
FORT COLLINS   CLOUDY    52  43  71 SW3       29.92S
LONGMONT       CLOUDY    55  43  64 CALM      29.93R
$$

COZ041-046-047-076>085-087-088-251600-
...PIKES PEAK/PALMER DIVIDE AND SOUTHERN FOOTHILLS...

CITY           SKY/WX    TMP DP  RH WIND       PRES   REMARKS
COLO. SPRINGS  PTSUNNY   54  42  64 SE8       29.94S
A. F. ACADEMY  NOT AVBL
ELLICOTT       NOT AVBL
FALCON         MOSUNNY   54  31  40 NW7       29.97S
FORT CARSON    NOT AVBL
LIMON          MOSUNNY   53  44  71 NW12      29.92S
MONUMENT HILL  NOT AVBL
TRINIDAD       PTSUNNY   55  40  56 N6        29.92R
$$

COZ042>045-048>051-090-091-251600-
...NORTHEAST COLORADO...

CITY           SKY/WX    TMP DP  RH WIND       PRES   REMARKS
GREELEY ARPT   CLOUDY    52  43  71 CALM      29.91S
AKRON          MOSUNNY   55  47  74 NW14      29.89R
BURLINGTON     PTSUNNY   56  48  74 NW13      29.88R
WRAY           MOSUNNY   59  50  71 NW9       29.85S
STERLING       CLOUDY    54  48  82 NW12      29.86S
HOLYOKE        NOT AVBL
FORT MORGAN    CLOUDY    54  45  72 N10G17    29.90R
$$

COZ086-089-092>099-251600-
...SOUTHEAST COLORADO...

CITY           SKY/WX    TMP DP  RH WIND       PRES   REMARKS
PUEBLO         PTSUNNY   56  45  66 CALM      29.90R
LA JUNTA       MOSUNNY   57  47  69 NE3       29.88S
LAMAR          SUNNY     57  51  80 VRB3      29.85S
SPRINGFIELD      N/A     61  46  57 N16       29.84F
$$


USA.gov is the U.S. government's official web portal to all federal, state and local government web resources and services.